Location: Dead Woman Crossing
(43.5369°N, 106.3228°W)
Time: 19:53:02
(UTC+00:00)

deb Delta 126 - Pass Details

Date: 17 December 2022
Orbit: 1045 x 1647 km, 101.7° (Epoch: 03 February)

Event Time Altitude Azimuth Distance (km) Brightness Sun altitude
Exits shadow 04:16:24 14° 313° (NW) 2,714 ? -50.7°
Maximum altitude 04:16:32 14° 311° (NW) 2,716 ? -50.7°
Drops below altitude 10° 04:19:39 10° 284° (WNW) 3,056 ? -51.3°
Sets 04:23:52 0° 260° (W) 4,125 ? -52.0°
